Showing default

SOLRAD 11A, 8748

Orbit data source: Space-Track

SOLRAD 11A, 8748 is a payload satellite owned by NRL (US) that was launched on Mon, 15 Mar 1976 UTC via a TITAN IIIC launch vehicle from the Air Force Eastern Test Range (AFETR). Payload-class satellites include a variety of spacecraft equipped with specific instruments for various scientific and technological missions. These include communications satellites like Starlink; space stations such as the ISS; scientific satellites like the Hubble; Earth observation satellites from companies like Planet Labs, Umbra, and HawkEye 360; GPS; miniature CubeSats for education and research; and military/defense satellites.

Loading next visibility...
Identifier
8748, 1976-023C
Orbit
Active
Country
Flag of USUS
Related business
Manufacturer
NRL
Mission
Spacecraft
Bus & Motor
SR 11, STAR 13A
Mass
171 kg wet, 171 kg dry
Launch date (UTC)
1976-03-15 (50 years ago)
Launch vehicle
TITAN IIIC
Launch site
Air Force Eastern Test Range (AFETR)
Object type
Payload
Rocket body
Debris
Shape & HBR
Unknown
Radar Cross Section
RCS unknown

Expand to show TLE details & history
Last TLE update: in 10 hours

TLE from in 10 hours
0 SOLRAD 11A
1 08748U 76023C   26063.25880790 -.00000621  00000-0  00000-0 0  9991
2 08748  14.7167 353.0545 0069279 212.3404   8.6773  0.19676912  5264
Epoch: 2026-03-04T06:12Z
TLE epoch observation values (Epoch: 2026-03-04T06:12:41.002Z)
Latitude
-9.60049°
Longitude
-41.78703°
Altitude
117,633.372 km
Speed
1.799 km/s
True Right ascension
14h 13m 38s
True Declination
-9° 35' 50"
Sunlit
Object was in daylight at epoch
Visualization orbit readout
Latitude
Unknown
Longitude
Unknown
Altitude
Unknown
Speed
Unknown
Apparent Right ascension
Unknown
Apparent Declination
Unknown
Sunlit
N/A
Visualization observer readout
Local Sidereal Time
23:47:51
Azimuth
Unknown
Elevation
Unknown
Doppler factor
Unknown
Orbital elements
Apogee altitude
119,349.367 km
Perigee altitude
117,619.298 km
Semi-major axis
124,862.47 km
Eccentricity
0.00693
Inclination
14.7167°
RAAN
353.0545°
Arg. of periapsis
212.3404°
True anomaly
8.79811°
Mean anomaly
8.6773°
Eccentric anomaly
8.7376°
Mean motion
0.04919 °/min
Orbital period
7,318.25 mins
BSTAR
0
Loading maneuver chart data...
Computing Atmospheric mass density...
Loading historical data...
Loading historical data...
Loading historical data...
Loading historical data...
Loading historical data...
Loading historical data...
Loading historical data...

Documentation

Showing up to 5 results
|